This demonstration page uses our WeatherBlox Daily Observations layout. Learn more.

39.51506, -84.39828

Hourly Observations for October 1, 2020

Temp ( °F °C ) Dew Point ( °F °C ) Humidity (%) Winds ( mph kmh ) Pressure ( in mb ) Visibility ( mi km ) Precip ( " mm )
12:15 am 00:15 Clear 51 10.7 44 6.4 75 75 SSW 3 6 29.96 1014 10 16.0934 0 0
12:35 am 00:35 Clear 50 9.8 45 7.4 85 85 Calm 29.96 1015 10 16.0934 0 0
12:55 am 00:55 Clear 49 9.2 44 6.9 86 86 Calm 29.97 1015 10 16.0934 0 0
1:15 am 01:15 Clear 47 8.3 43 6.2 87 87 Calm 29.97 1015 10 16.0934 0 0
1:35 am 01:35 Clear 48 8.8 46 7.8 94 94 Calm 29.98 1015 10 16.0934 0 0
1:55 am 01:55 Clear 47 8.3 45 7.4 94 94 Calm 29.98 1015 10 16.0934 0 0
2:15 am 02:15 Clear 45 7.4 44 6.7 95 95 Calm 29.99 1015 10 16.0934 0 0
2:35 am 02:35 Clear 47 8.1 45 7.4 95 95 Calm 29.98 1015 10 16.0934 0 0
2:55 am 02:55 Clear 46 7.7 45 7.3 97 97 Calm 29.98 1015 10 16.0934 0 0
3:15 am 03:15 Clear 46 8 45 7.2 95 95 Calm 29.98 1015 10 16.0934 0 0
3:35 am 03:35 Clear 46 7.9 45 7.1 95 95 Calm 29.97 1015 10 16.0934 0 0
3:55 am 03:55 Clear 44 6.8 44 6.7 99 99 Calm 29.98 1015 10 16.0934 0 0
4:15 am 04:15 Clear 43 6 43 6 100 100 Calm 29.99 1016 10 16.0934 0 0
4:35 am 04:35 Clear 44 6.5 44 6.5 100 100 Calm 29.99 1016 10 16.0934 0 0
4:55 am 04:55 Clear 45 7 43 6 93 93 Calm 29.99 1015 10 16.0934 0 0
5:15 am 05:15 Clear 45 7 45 7 100 100 Calm 29.99 1015 10 16.0934 0 0
5:35 am 05:35 Clear 45 7 N/A N/A Calm 29.99 1015 10 16.0934 0 0
5:55 am 05:55 Mostly Cloudy with Fog 43 6 N/A N/A Calm 29.99 1016 0.5 0.80467 0 0
6:15 am 06:15 Mostly Cloudy with Mist and Fog 41 5 N/A N/A Calm 30 1016 1.75 2.816345 0 0
6:35 am 06:35 Clear 43 6 N/A N/A Calm 30.01 1016 10 16.0934 0 0
6:55 am 06:55 Hazy 41 5 N/A N/A Calm 30.01 1016 4 6.43736 0 0
7:15 am 07:15 Mostly Cloudy with Fog 41 5 N/A N/A Calm 30.01 1016 0.5 0.80467 0 0
7:35 am 07:35 Mostly Cloudy with Mist and Fog 41 5 N/A N/A Calm 30.01 1016 0.75 1.207005 0 0
7:55 am 07:55 Sunny 41 5 N/A N/A Calm 30.01 1016 10 16.0934 0 0
8:15 am 08:15 Hazy 41 5 N/A N/A Calm 30.02 1017 7 11.26538 0 0
8:35 am 08:35 Sunny 45 7 N/A N/A Calm 30.02 1016 10 16.0934 0 0
8:55 am 08:55 Sunny 47 8.6 47 8.4 99 99 SW 6 9 30.01 1016 10 16.0934 0 0
9:15 am 09:15 Sunny 50 10.1 46 8 87 87 SW 7 11 30.01 1016 10 16.0934 0 0
9:35 am 09:35 Sunny 52 11.1 46 7.5 79 79 SSW 6 9 30.02 1016 10 16.0934 0 0
9:55 am 09:55 Sunny 54 12.1 45 7.2 72 72 SSW 6 9 30.01 1016 10 16.0934 0 0
10:15 am 10:15 Sunny 55 12.9 45 7 68 68 SSW 7 11 30 1016 10 16.0934 0 0
10:35 am 10:35 Sunny 57 13.8 45 7.3 65 65 SSW 6 9 30.01 1016 10 16.0934 0 0
10:55 am 10:55 Sunny 59 15.2 45 7.2 59 59 SW 7 11 30.01 1016 10 16.0934 0 0
11:15 am 11:15 Sunny 60 15.8 44 6.9 56 56 SSW 5 7 30 1016 10 16.0934 0 0
11:35 am 11:35 Sunny 63 17.2 44 6.6 50 50 SW 5 7 29.99 1016 10 16.0934 0 0
11:55 am 11:55 Sunny 65 18.2 42 5.8 44 44 WNW 6 9 29.99 1016 10 16.0934 0 0
12:15 pm 12:15 Partly Cloudy 66 18.9 41 5.2 41 41 SW 8 13 29.99 1015 10 16.0934 0 0
12:35 pm 12:35 Partly Cloudy 65 18.3 38 3.2 37 37 W 14 22 29.99 1016 10 16.0934 0 0
12:55 pm 12:55 Cloudy 67 19.4 37 3 34 34 W 16 26 29.99 1015 10 16.0934 0 0
1:15 pm 13:15 Partly Cloudy 68 19.9 38 3.1 33 33 WSW 17 28 29.97 1015 10 16.0934 0 0
1:35 pm 13:35 Cloudy 65 18.4 36 2.1 34 34 W 14 22 29.98 1015 10 16.0934 0 0
1:55 pm 13:55 Cloudy 66 18.9 36 2.4 33 33 W 13 20 29.98 1015 10 16.0934 0 0
2:15 pm 14:15 Cloudy 64 17.8 35 1.4 33 33 W 12 19 29.98 1015 10 16.0934 0 0
2:35 pm 14:35 Cloudy 65 18.5 34 1.2 31 31 W 18 30 29.98 1015 10 16.0934 0 0
2:55 pm 14:55 Cloudy with Light Rain 59 14.9 40 4.2 49 49 W 18 30 30.01 1016 10 16.0934 0 0
3:15 pm 15:15 Cloudy 61 16.3 41 4.9 47 47 WNW 13 20 30 1016 10 16.0934 0 0
3:35 pm 15:35 Mostly Cloudy with Light Rain 56 13.2 46 7.9 70 70 NW 10 17 30.01 1016 10 16.0934 0.01 0.254
3:55 pm 15:55 Partly Cloudy 59 15.1 46 8 63 63 Calm 30 1016 10 16.0934 0.01 0.254
4:15 pm 16:15 Cloudy with Light Rain 57 14.1 40 4.5 53 53 W 21 33 30.01 1016 10 16.0934 0 0
4:35 pm 16:35 Partly Cloudy 60 15.5 41 5.1 50 50 SW 9 15 30.01 1016 10 16.0934 0 0
4:55 pm 16:55 Partly Cloudy 61 16.2 40 4.4 46 46 WSW 12 19 30 1016 10 16.0934 0 0
5:15 pm 17:15 Mostly Cloudy 60 15.5 36 2.1 41 41 W 15 24 30.01 1016 10 16.0934 0 0
5:35 pm 17:35 Mostly Cloudy 59 15.1 37 2.9 44 44 W 20 31 30.02 1016 10 16.0934 0 0
5:55 pm 17:55 Mostly Cloudy 61 16.3 38 3.2 42 42 W 12 19 30 1016 10 16.0934 0 0
6:15 pm 18:15 Sunny 60 15.5 35 1.6 39 39 W 13 20 30.02 1016 10 16.0934 0 0
6:35 pm 18:35 Mostly Cloudy 59 15.1 36 2.3 42 42 W 10 17 30.02 1016 10 16.0934 0 0
6:55 pm 18:55 Cloudy 58 14.5 37 2.7 45 45 W 14 22 30.03 1017 10 16.0934 0 0
7:15 pm 19:15 Cloudy 57 14 38 3.5 49 49 W 9 15 30.03 1017 10 16.0934 0 0
7:35 pm 19:35 Mostly Cloudy 56 13.4 39 3.9 53 53 W 5 7 30.04 1017 10 16.0934 0 0
7:55 pm 19:55 Mostly Cloudy 55 12.5 40 4.7 59 59 W 5 7 30.05 1018 10 16.0934 0 0
8:15 pm 20:15 Partly Cloudy 52 11.3 41 5 65 65 NW 7 11 30.07 1018 10 16.0934 0 0
8:35 pm 20:35 Partly Cloudy 52 10.9 41 4.9 67 67 W 6 9 30.07 1018 10 16.0934 0 0
8:55 pm 20:55 Cloudy 51 10.7 43 5.9 72 72 WNW 5 7 30.07 1018 10 16.0934 0 0
9:15 pm 21:15 Partly Cloudy 50 9.9 42 5.6 75 75 W 7 11 30.08 1019 10 16.0934 0 0
9:35 pm 21:35 Clear 48 9.1 42 5.7 79 79 WNW 8 13 30.09 1019 10 16.0934 0 0
9:55 pm 21:55 Clear 49 9.5 42 5.5 76 76 WNW 5 7 30.1 1019 10 16.0934 0 0
10:15 pm 22:15 Clear 48 8.8 41 5.2 78 78 NW 6 9 30.1 1019 10 16.0934 0 0
10:35 pm 22:35 Clear 48 8.9 42 5.4 79 79 WNW 5 7 30.1 1019 10 16.0934 0 0
10:55 pm 22:55 Clear 47 8.5 42 5.3 81 81 WNW 3 6 30.1 1019 10 16.0934 0 0
11:15 pm 23:15 Partly Cloudy 47 8.3 41 5 80 80 Calm 30.1 1019 10 16.0934 0 0
11:35 pm 23:35 Partly Cloudy 47 8.2 41 4.9 80 80 Calm 30.11 1020 10 16.0934 0 0
11:55 pm 23:55 Clear 45 7.3 42 5.7 90 90 Calm 30.13 1020 10 16.0934 0 0

Powered by AerisWeather